Location: Bishop�s Knoyle
(51.0728°N, 2.1714°W)
Time: 01:04:59
(UTC+00:00)

ISS - Pass Details

Date: 28 September 2021
Orbit: 417 x 423 km, 51.6° (Epoch: 24 October)

Event Time Altitude Azimuth Distance (km) Brightness Sun altitude
Rises 20:34:33 0° 285° (WNW) 2,368 1.3 -25.2°
Reaches altitude 10° 20:36:44 10° 277° (W) 1,502 -0.1 -25.5°
Enters shadow 20:38:17 23° 261° (W) 955 -1.5 -25.7°
